Owen Roberts, Cayman Islands

10:35 PM EST on April 23, 2018 (GMT -0500)
Roberts International

Weather History for MWCR - December, 2013

Change the Weather History Date:

Monday, December 9, 2013

  Actual Average Record
Temperature  
Mean Temperature 82 °F -  
Max Temperature 86 °F 81 °F 87 °F (1997)
Min Temperature 77 °F 74 °F 64 °F (2010)
Cooling Degree Days 16    
Growing Degree Days 32 (Base 50)    
Moisture  
Dew Point 74 °F    
Average Humidity 77    
Maximum Humidity 89    
Minimum Humidity 64    
Precipitation  
Precipitation 0.00 in - - ()
Sea Level Pressure  
Sea Level Pressure 30.01 in    
Wind  
Wind Speed 9 mph ()    
Max Wind Speed 15 mph    
Max Gust Speed -    
Visibility 6.2 miles    
Events      
Averages and records for this station are not official NWS values.
T = Trace of Precipitation, MM = Missing Value Source: Averaged Metar Reports

Daily Weather History Graph

Daily Weather History Graph

Search for Another Location

Airport or City:

Astronomy

Dec. 09, 2013 Rise Set
Actual Time 6:47 AM EST 5:47 PM EST
Civil Twilight 6:24 AM EST 6:11 PM EST
Nautical Twilight 5:56 AM EST 6:39 PM EST
Astronomical Twilight 5:29 AM EST 7:05 PM EST
Moon 12:26 PM EST (12/9) No Moon Set
Length of Visible Light 11h 47m
Length of Day
11h 00m
Waxing Crescent, 51% of the Moon is Illuminated
Dec 9
Waxing Crescent
Dec 17
Full
Dec 25
Last Quarter
Jan 1
New
Jan 7
First Quarter

Hourly Weather History & Observations

Time (EST) Temp. Heat Index Dew Point Humidity Pressure Visibility Wind Dir Wind Speed Gust Speed Precip Events Conditions
6:00 AM 80.6 °F 85.4 °F 73.4 °F 79% 30.01 in 6.2 mi East 9.2 mph - N/A   Partly Cloudy
7:00 AM 80 °F - 75 °F 80% 30.04 in 6 mi East 8.1 mph - -   Scattered Clouds
7:00 AM 78.8 °F - 75.2 °F 89% 30.04 in 6.2 mi East 8.1 mph - N/A   Partly Cloudy
8:00 AM 80.6 °F 86.2 °F 75.2 °F 84% 30.04 in 6.2 mi East 9.2 mph - N/A   Partly Cloudy
9:00 AM 82.4 °F 89.5 °F 75.2 °F 79% 30.04 in 6.2 mi East 11.5 mph - N/A   Partly Cloudy
10:00 AM 84.2 °F 90.9 °F 73.4 °F 70% 30.06 in 6.2 mi East 15.0 mph - N/A   Partly Cloudy
11:00 AM 84.2 °F 92.3 °F 75.2 °F 74% 30.06 in 6.2 mi East 11.5 mph - N/A   Scattered Clouds
12:00 PM 84.2 °F 92.3 °F 75.2 °F 74% 30.04 in 6.2 mi ENE 13.8 mph - N/A   Scattered Clouds
1:00 PM 84 °F - 74 °F 64% 30.01 in 6 mi ENE 12.7 mph - -   Partly Cloudy
1:00 PM 84.2 °F 90.9 °F 73.4 °F 70% 30.01 in 6.2 mi ENE 12.7 mph - N/A   Scattered Clouds
2:00 PM 86.0 °F 95.1 °F 75.2 °F 70% 29.98 in 6.2 mi East 9.2 mph - N/A   Scattered Clouds
3:00 PM 84.2 °F 90.9 °F 73.4 °F 70% 29.95 in 6.2 mi East 11.5 mph - N/A   Scattered Clouds
4:00 PM 84.2 °F 90.9 °F 73.4 °F 70% 29.95 in 6.2 mi East 11.5 mph - N/A   Partly Cloudy
4:54 PM 82.4 °F 88.2 °F 73.4 °F 74% 29.95 in 6.2 mi East 11.5 mph - N/A   Partly Cloudy
5:50 PM 80.6 °F 85.4 °F 73.4 °F 79% 29.98 in 6.2 mi East 11.5 mph - N/A   Partly Cloudy
6:50 PM 80.6 °F 85.4 °F 73.4 °F 79% 29.98 in 6.2 mi East 10.4 mph - N/A   Partly Cloudy
7:00 PM 80 °F - 73 °F 75% 30.00 in 6 mi East 10.4 mph - -   Scattered Clouds
7:55 PM 78.8 °F - 73.4 °F 83% 30.01 in 6.2 mi East 10.4 mph - N/A   Partly Cloudy
8:52 PM 78.8 °F - 73.4 °F 83% 30.04 in 6.2 mi East 9.2 mph - N/A   Partly Cloudy
9:50 PM 78.8 °F - 75.2 °F 89% 30.04 in 6.2 mi East 9.2 mph - N/A   Partly Cloudy